TimeEST,TemperatureF,Dew PointF,Humidity,Sea Level PressureIn,VisibilityMPH,Wind Direction,Wind SpeedMPH,Gust SpeedMPH,PrecipitationIn,Events,Conditions,WindDirDegrees,DateUTC
12:05 AM,15.8,12.2,86,30.25,10.0,Calm,Calm,-,0.00,Snow,Light Snow,0,2014-02-06 05:05:00
12:56 AM,15.8,12.2,86,30.27,10.0,Calm,Calm,-,N/A,Snow,Light Snow,0,2014-02-06 05:56:00
1:56 AM,14.0,10.0,84,30.38,6.0,Calm,Calm,-,0.00,Snow,Light Snow,0,2014-02-06 06:56:00
2:06 AM,14.0,10.4,86,30.28,5.0,Calm,Calm,-,0.00,Snow,Light Snow,0,2014-02-06 07:06:00
2:56 AM,14.0,10.0,84,30.39,6.0,Calm,Calm,-,0.00,Snow,Light Snow,0,2014-02-06 07:56:00
3:56 AM,12.2,8.6,85,30.30,9.0,Calm,Calm,-,N/A,Snow,Light Snow,0,2014-02-06 08:56:00
4:41 AM,10.4,6.8,85,30.31,10.0,Calm,Calm,-,0.00,,Scattered Clouds,0,2014-02-06 09:41:00
4:56 AM,10.0,6.1,84,30.42,10.0,Calm,Calm,-,0.00,,Clear,0,2014-02-06 09:56:00
5:56 AM,7.2,4.1,87,30.44,10.0,Calm,Calm,-,N/A,,Clear,0,2014-02-06 10:56:00
6:56 AM,8.1,5.0,87,30.45,10.0,Calm,Calm,-,N/A,,Clear,0,2014-02-06 11:56:00
7:56 AM,7.2,5.0,91,30.46,10.0,Calm,Calm,-,N/A,,Clear,0,2014-02-06 12:56:00
8:23 AM,6.8,3.2,85,30.36,10.0,Calm,Calm,-,N/A,,Scattered Clouds,0,2014-02-06 13:23:00
8:56 AM,11.1,7.2,84,30.47,10.0,Calm,Calm,-,N/A,,Clear,0,2014-02-06 13:56:00
9:56 AM,14.0,9.1,81,30.48,10.0,SW,3.5,-,N/A,,Clear,230,2014-02-06 14:56:00
10:43 AM,15.8,10.4,79,30.37,10.0,WSW,3.5,-,N/A,,Mostly Cloudy,240,2014-02-06 15:43:00
10:56 AM,16.2,11.1,81,30.48,10.0,Variable,4.6,-,N/A,,Mostly Cloudy,0,2014-02-06 15:56:00
11:16 AM,15.8,10.4,79,30.38,10.0,WSW,9.2,-,N/A,,Overcast,240,2014-02-06 16:16:00
11:56 AM,17.1,11.1,77,30.47,10.0,Variable,4.6,-,N/A,,Mostly Cloudy,0,2014-02-06 16:56:00
12:07 PM,17.6,10.4,73,30.36,10.0,WSW,6.9,-,N/A,,Mostly Cloudy,250,2014-02-06 17:07:00
12:56 PM,19.4,12.2,74,30.33,10.0,SW,6.9,-,N/A,,Mostly Cloudy,230,2014-02-06 17:56:00
1:56 PM,20.1,12.0,71,30.41,10.0,SSW,10.4,-,N/A,,Overcast,210,2014-02-06 18:56:00
2:56 PM,20.1,12.0,71,30.39,10.0,WSW,8.1,-,0.00,,Overcast,250,2014-02-06 19:56:00
3:17 PM,19.4,12.2,74,30.28,10.0,SW,10.4,-,0.00,Snow,Light Snow,230,2014-02-06 20:17:00
3:56 PM,19.4,12.2,74,30.29,10.0,WSW,8.1,-,N/A,,Overcast,240,2014-02-06 20:56:00
4:56 PM,19.0,12.0,74,30.40,10.0,WSW,6.9,-,0.00,Snow,Light Snow,250,2014-02-06 21:56:00
5:56 PM,18.1,13.1,81,30.40,10.0,SW,3.5,-,0.00,,Overcast,230,2014-02-06 22:56:00
6:56 PM,17.6,14.0,86,30.27,10.0,Calm,Calm,-,N/A,,Overcast,0,2014-02-06 23:56:00
7:46 PM,17.6,14.0,86,30.27,10.0,Calm,Calm,-,0.00,Snow,Light Snow,0,2014-02-07 00:46:00
7:56 PM,17.1,14.0,88,30.39,10.0,Calm,Calm,-,0.00,Snow,Light Snow,0,2014-02-07 00:56:00
8:05 PM,17.6,14.0,86,30.27,10.0,Calm,Calm,-,0.00,Snow,Light Snow,0,2014-02-07 01:05:00
8:56 PM,17.1,13.1,84,30.38,10.0,SW,5.8,-,0.00,,Overcast,220,2014-02-07 01:56:00
9:56 PM,17.6,12.2,79,30.28,6.0,SW,6.9,-,N/A,Snow,Light Snow,220,2014-02-07 02:56:00
10:35 PM,17.6,12.2,79,30.28,10.0,SW,8.1,-,0.00,Snow,Light Snow,230,2014-02-07 03:35:00
10:56 PM,17.1,12.0,81,30.38,9.0,SW,8.1,20.7,0.00,Snow,Light Snow,230,2014-02-07 03:56:00
11:56 PM,17.1,10.0,74,30.38,10.0,WSW,10.4,-,0.00,Snow,Light Snow,240,2014-02-07 04:56:00